Regional Weather Roundup
Issued by NWS Goodland, KS

Home | Current Version | Previous Version | Text Only | Print | Product List | Glossary Off
Versions: 1 2 3 4 5 6 7 8 9 10 11 12 13 14 15 16 17 18 19 20 21 22 23 24 25 26 27 28 29 30 31 32 33 34 35 36 37 38 39 40 41 42 43 44 45 46 47 48 49 50

000
ASUS43 KGLD 212059
RWRGLD

GOODLAND FORECAST AREA HOURLY WEATHER ROUNDUP
NATIONAL WEATHER SERVICE GOODLAND KS
300 PM MDT THU AUG 21 2014

...OFFICIAL OBSERVATIONS...

CITY           SKY/WX    TMP DP  RH WIND       PRES   REMARKS
GOODLAND KS    SUNNY     93  47  20 N13       29.97F
HILL CITY KS   SUNNY     97  62  31 N7        29.85S
IMPERIAL NEB   SUNNY     90  49  24 N9        29.95S
MCCOOK NEB     MOSUNNY   94  55  26 NW7       29.89S
AKRON CO       SUNNY     86  44  23 NW12      30.06S
BURLINGTON CO  SUNNY     89  45  21 N7        30.02S
LIMON CO       CLOUDY    81  44  27 VRB5      30.09F
$$

...UNOFFICIAL OBSERVATIONS...

CITY           SKY/WX    TMP DP  RH WIND       PRES   REMARKS
COLBY KS       SUNNY     91  61  35 NW8       29.93F
LENORA KS        N/A     92  32  12 CALM        N/A
NORTON KS      SUNNY     95  48  20 N12       29.85F
SHARON SPRINGS   N/A     93  56  28 E5G20       N/A
WAKEENEY KS      N/A     99  55  22 MISG        N/A
KIT CARSON CO    N/A     90  50  25 MISG        N/A
YUMA CO          N/A     88  44  21 W8G16       N/A
$$



USA.gov is the U.S. government's official web portal to all federal, state and local government web resources and services.